Weather History for Show Low, AZ

Change the Weather History Date:

Sunday, September 15, 2013

  Actual Average Record
Temperature  
Mean Temperature 62 °F -  
Max Temperature 75 °F 74 °F 88 °F (1990)
Min Temperature 50 °F 54 °F 35 °F (2012)
Degree Days  
Heating Degree Days 2    
Growing Degree Days 12 (Base 50)    
Moisture  
Dew Point 47 °F    
Average Humidity 56    
Maximum Humidity 87    
Minimum Humidity 27    
Precipitation  
Precipitation 0.00 in - - ()
Sea Level Pressure  
Sea Level Pressure 30.16 in    
Wind  
Wind Speed 9 mph (South)    
Max Wind Speed 13 mph    
Max Gust Speed 18 mph    
Visibility 10 miles    
Events Rain , Thunderstorm    
Averages and records for this station are not official NWS values.
T = Trace of Precipitation, MM = Missing Value Source: NWS Daily Summary

Daily Weather History Graph

Daily Weather History Graph

Search for Another Location

Airport:

Trip Planner

Search our weather history database for the weather conditions in past years. The results will help you decide how hot, cold, wet, or windy it might be!

Date:

Astronomy

Sep. 15, 2013 Rise Set
Actual Time 6:03 AM MST 6:26 PM MST
Civil Twilight 5:38 AM MST 6:51 PM MST
Nautical Twilight 5:08 AM MST 7:20 PM MST
Astronomical Twilight 4:38 AM MST 7:50 PM MST
Moon 3:48 PM MST (9/15) 1:54 AM MST (9/15)
Length of Visible Light 13h 13m
Length of Day
12h 22m
Waxing Gibbous, 83% of the Moon is Illuminated
Sep 15
Waxing Gibbous
Sep 19
Full
Sep 26
Last Quarter
Oct 4
New
Oct 11
First Quarter

Hourly Weather History & Observations

Time (MST) Temp. Dew Point Humidity Pressure Visibility Wind Dir Wind Speed Gust Speed Precip Events Conditions
12:15 AM 57.2 °F 48.2 °F 72% 30.12 in 10.0 mi South 12.7 mph - N/A   Clear
12:35 AM 57.2 °F 48.2 °F 72% 30.11 in 10.0 mi South 10.4 mph - N/A   Clear
12:55 AM 57.2 °F 48.2 °F 72% 30.11 in 10.0 mi South 11.5 mph - N/A   Clear
1:15 AM 57.2 °F 48.2 °F 72% 30.11 in 10.0 mi South 11.5 mph - N/A   Clear
1:35 AM 57.2 °F 48.2 °F 72% 30.10 in 10.0 mi South 12.7 mph - N/A   Clear
1:55 AM 55.4 °F 48.2 °F 77% 30.11 in 10.0 mi South 10.4 mph - N/A   Clear
2:15 AM 55.4 °F 48.2 °F 77% 30.11 in 10.0 mi South 12.7 mph - N/A   Clear
2:35 AM 55.4 °F 48.2 °F 77% 30.11 in 10.0 mi South 11.5 mph - N/A   Clear
2:55 AM 55.4 °F 48.2 °F 77% 30.11 in 10.0 mi South 9.2 mph - N/A   Clear
3:15 AM 55.4 °F 46.4 °F 72% 30.11 in 10.0 mi South 11.5 mph - N/A   Clear
3:35 AM 55.4 °F 46.4 °F 72% 30.11 in 10.0 mi South 10.4 mph - N/A   Clear
3:55 AM 55.4 °F 46.4 °F 72% 30.12 in 10.0 mi South 9.2 mph - N/A   Clear
4:15 AM 53.6 °F 46.4 °F 77% 30.12 in 10.0 mi South 4.6 mph - N/A   Clear
4:35 AM 53.6 °F 46.4 °F 77% 30.12 in 10.0 mi South 3.5 mph - N/A   Clear
4:55 AM 51.8 °F 46.4 °F 82% 30.13 in 10.0 mi Calm Calm - N/A   Clear
5:15 AM 51.8 °F 46.4 °F 82% 30.13 in 10.0 mi SSE 3.5 mph - N/A   Clear
5:35 AM 51.8 °F 44.6 °F 76% 30.14 in 10.0 mi Calm Calm - N/A   Clear
5:55 AM 53.6 °F 44.6 °F 72% 30.14 in 10.0 mi South 3.5 mph - N/A   Clear
6:15 AM 51.8 °F 44.6 °F 76% 30.14 in 10.0 mi SSE 3.5 mph - N/A   Clear
6:35 AM 50.0 °F 46.4 °F 87% 30.15 in 10.0 mi Calm Calm - N/A   Clear
6:55 AM 55.4 °F 44.6 °F 67% 30.15 in 10.0 mi South 9.2 mph - N/A   Clear
7:15 AM 59.0 °F 46.4 °F 63% 30.15 in 10.0 mi South 9.2 mph - N/A   Clear
7:35 AM 62.6 °F 46.4 °F 55% 30.16 in 10.0 mi South 10.4 mph - N/A   Clear
7:55 AM 62.6 °F 46.4 °F 55% 30.16 in 10.0 mi South 10.4 mph - N/A   Clear
8:15 AM 64.4 °F 46.4 °F 52% 30.17 in 10.0 mi South 12.7 mph - N/A   Clear
8:35 AM 66.2 °F 48.2 °F 52% 30.17 in 10.0 mi South 12.7 mph - N/A   Clear
8:55 AM 68.0 °F 48.2 °F 49% 30.18 in 10.0 mi South 12.7 mph - N/A   Clear
9:15 AM 68.0 °F 48.2 °F 49% 30.18 in 10.0 mi South 12.7 mph - N/A   Clear
9:35 AM 69.8 °F 50.0 °F 49% 30.18 in 10.0 mi SSW 12.7 mph - N/A   Clear
9:55 AM 71.6 °F 50.0 °F 46% 30.19 in 10.0 mi South 12.7 mph - N/A   Clear
10:15 AM 71.6 °F 50.0 °F 46% 30.19 in 10.0 mi SW 10.4 mph - N/A   Clear
10:35 AM 71.6 °F 50.0 °F 46% 30.19 in 10.0 mi South 10.4 mph - N/A   Clear
10:55 AM 71.6 °F 48.2 °F 43% 30.19 in 10.0 mi South 6.9 mph - N/A   Clear
11:15 AM 73.4 °F 48.2 °F 41% 30.18 in 10.0 mi SW 4.6 mph - N/A   Partly Cloudy
11:35 AM 73.4 °F 48.2 °F 41% 30.18 in 10.0 mi SSW 3.5 mph - N/A   Scattered Clouds
11:55 AM 73.4 °F 46.4 °F 38% 30.18 in 10.0 mi SSW 9.2 mph - N/A   Partly Cloudy
12:15 PM 73.4 °F 44.6 °F 36% 30.18 in 10.0 mi SW 9.2 mph - N/A   Clear
12:35 PM 73.4 °F 44.6 °F 36% 30.18 in 10.0 mi SW 8.1 mph - N/A   Clear
12:55 PM 73.4 °F 48.2 °F 41% 30.17 in 10.0 mi SW 8.1 mph - N/A   Clear
1:15 PM 75.2 °F 46.4 °F 36% 30.16 in 10.0 mi SSW 9.2 mph - N/A   Partly Cloudy
1:35 PM 75.2 °F 44.6 °F 34% 30.16 in 10.0 mi SSW 5.8 mph - N/A   Partly Cloudy
1:55 PM 73.4 °F 44.6 °F 36% 30.15 in 10.0 mi SW 10.4 mph - N/A   Scattered Clouds
2:15 PM 75.2 °F 44.6 °F 34% 30.15 in 10.0 mi South 3.5 mph - N/A   Partly Cloudy
2:35 PM 75.2 °F 44.6 °F 34% 30.15 in 10.0 mi WSW 4.6 mph - N/A   Scattered Clouds
2:55 PM 75.2 °F 46.4 °F 36% 30.14 in 10.0 mi WSW 5.8 mph - N/A   Unknown
3:15 PM 75.2 °F 44.6 °F 34% 30.14 in 10.0 mi South 9.2 mph - N/A   Clear
3:35 PM 75.2 °F 39.2 °F 27% 30.14 in 10.0 mi SSW 4.6 mph - N/A   Scattered Clouds
3:55 PM 75.2 °F 42.8 °F 31% 30.13 in 10.0 mi SSE 6.9 mph - N/A   Overcast
4:15 PM 75.2 °F 41.0 °F 29% 30.14 in 10.0 mi SSW 5.8 mph - N/A   Mostly Cloudy
4:35 PM 75.2 °F 41.0 °F 29% 30.14 in 10.0 mi SSW 5.8 mph - N/A   Partly Cloudy
4:55 PM 75.2 °F 46.4 °F 36% 30.15 in 10.0 mi ENE 3.5 mph - N/A   Mostly Cloudy
5:15 PM 73.4 °F 46.4 °F 38% 30.15 in 10.0 mi NE 6.9 mph - N/A   Mostly Cloudy
5:35 PM 73.4 °F 44.6 °F 36% 30.16 in 10.0 mi SE 6.9 mph - N/A   Overcast
5:55 PM 71.6 °F 50.0 °F 46% 30.15 in 9.0 mi East 10.4 mph - N/A Rain , Thunderstorm Light Rain
6:15 PM 66.2 °F 50.0 °F 56% 30.16 in 10.0 mi NE 9.2 mph - N/A   Mostly Cloudy
6:35 PM 64.4 °F 48.2 °F 56% 30.17 in 10.0 mi NNE 11.5 mph 18.4 mph N/A   Partly Cloudy
6:55 PM 64.4 °F 46.4 °F 52% 30.17 in 10.0 mi NNE 8.1 mph - N/A   Clear
7:15 PM 62.6 °F 46.4 °F 55% 30.18 in 10.0 mi ENE 4.6 mph - N/A   Scattered Clouds
7:35 PM 62.6 °F 46.4 °F 55% 30.18 in 10.0 mi East 5.8 mph - N/A   Mostly Cloudy
7:55 PM 62.6 °F 46.4 °F 55% 30.19 in 10.0 mi ESE 4.6 mph - N/A   Partly Cloudy
8:15 PM 60.8 °F 44.6 °F 55% 30.19 in 10.0 mi ESE 3.5 mph - N/A   Clear
8:35 PM 60.8 °F 46.4 °F 59% 30.20 in 10.0 mi West 5.8 mph - N/A   Clear
8:55 PM 59.0 °F 46.4 °F 63% 30.20 in 10.0 mi South 4.6 mph - N/A   Clear
9:15 PM 57.2 °F 48.2 °F 72% 30.21 in 10.0 mi ENE 5.8 mph - N/A   Clear
9:35 PM 57.2 °F 46.4 °F 67% 30.21 in 10.0 mi ESE 3.5 mph - N/A   Clear
9:55 PM 57.2 °F 48.2 °F 72% 30.22 in 10.0 mi East 8.1 mph - N/A   Partly Cloudy
10:15 PM 59.0 °F 46.4 °F 63% 30.21 in 10.0 mi Calm Calm - N/A   Partly Cloudy
10:35 PM 57.2 °F 46.4 °F 67% 30.21 in 10.0 mi Calm Calm - N/A   Clear
10:55 PM 59.0 °F 46.4 °F 63% 30.21 in 10.0 mi SSE 4.6 mph - N/A   Scattered Clouds
11:15 PM 59.0 °F 46.4 °F 63% 30.21 in 10.0 mi SSE 4.6 mph - N/A   Scattered Clouds
11:35 PM 59.0 °F 46.4 °F 63% 30.21 in 10.0 mi Calm Calm - N/A   Partly Cloudy
11:55 PM 59.0 °F 46.4 °F 63% 30.21 in 10.0 mi Calm Calm - N/A   Clear